Regional Weather Roundup
Issued by NWS Nashville, TN

Home | Current Version | Previous Version | Text Only | Print | Product List | Glossary On
Versions: 1 2 3 4 5 6 7 8 9 10 11 12 13 14 15 16 17 18 19 20 21 22 23 24 25 26 27 28 29 30 31 32 33 34 35 36 37 38 39 40 41 42 43 44 45 46 47 48 49 50
000
ASUS44 KOHX 241010
RWROHX
MIDDLE TENNESSEE HOURLY WEATHER ROUNDUP
NATIONAL WEATHER SERVICE NASHVILLE TN
500 AM CDT WED MAY 24 2017

NOTE: "FAIR" INDICATES FEW OR NO CLOUDS BELOW 12,000 FEET WITH
NO SIGNIFICANT WEATHER AND/OR OBSTRUCTIONS TO VISIBILITY.

* THESE REPORTS ARE NOT UNDER NWS QUALITY CONTROL AND MAY NOT
  REPORT WEATHER SUCH AS PRECIPITATION AND FOG.


TNZ005>011-023>034-057-059-062>066-078-080-241100
...NORTHERN MIDDLE TENNESSEE...

CITY           SKY/WX    TMP DP  RH WIND       PRES   REMARKS
CLARKSVILLE    CLOUDY    61  57  87 N7        29.53F
CROSSVILLE     CLOUDY    59  58  96 S5        29.59S FOG
GALLATIN       CLOUDY    63  61  94 CALM      29.56F
DICKSON        CLOUDY    60  59  97 CALM      29.53F
LEBANON        CLOUDY    62  60  93 CALM      29.52F
NASHVILLE      LGT RAIN  63  60  90 S9        29.54F
PORTLAND       CLOUDY    61  57  88 CALM      29.53F
ROCKWOOD       MOCLDY    60  59  97 SW3       29.58
SPARTA         PTCLDY    59  59 100 CALM      29.54F
SPRINGFIELD    CLOUDY    61  59  94 CALM      29.53F
WEST NASHVILLE CLOUDY    63  61  94 CALM      29.52S
$$
TNZ056-058-060-061-075>077-079-093>097-241100
...SOUTHERN MIDDLE TENNESSEE...

CITY           SKY/WX    TMP DP  RH WIND       PRES   REMARKS
COLUMBIA       CLOUDY    61  61 100 CALM      29.54S FOG
FAYETTEVILLE   CLOUDY    64  64 100 S8        29.54F FOG
MCMINNVILLE    MOCLDY    59  59 100 CALM      29.55F
MURFREESBORO   CLOUDY    65  60  83 CALM      29.53F
PULASKI        CLOUDY    63  61  94 CALM      29.54F
SHELBYVILLE    CLOUDY    63  61  94 CALM      29.53F
TULLAHOMA      CLOUDY    63  63 100 SE5       29.55F
WINCHESTER     CLOUDY    63  63 100 SE3         N/A
$$


...KEY TO REMARKS...
VSB - VISIBILITY IN MILES
WCI - WIND CHILL INDEX
HX  - HEAT INDEX




USA.gov is the U.S. government's official web portal to all federal, state and local government web resources and services.